Theta_e
336 335 335 334 333 332 331 329 328 328 327 326 325 324 324 322 322 321 319 318 319 318 318 319 318 320 321 321 321 321 321 321 320 320 319 318 318 319 319 314 305 300 300 301 301 301 301 301 301 301 301 301 301 302 303 305 309 313 315 316 315 315 315 314 314 313 313 311 311 311 311 311 310 310 309 308 308 306 304 304 304 304 305 304 302
335 335 335 334 333 332 331 329 328 328 327 326 325 324 323 322 322 320 318 318 319 318 319 319 319 320 321 321 321 321 320 320 320 319 320 319 317 317 317 315 310 305 301 300 301 301 301 301 301 301 301 301 301 301 302 305 309 313 315 315 315 315 316 315 315 317 317 314 313 313 313 312 311 309 308 307 306 305 303 303 303 302 303 303 303
335 335 335 334 332 331 330 329 327 328 327 326 325 323 323 322 321 320 317 317 319 318 319 319 319 320 320 321 321 321 321 320 320 320 320 320 319 317 315 313 311 308 305 301 300 301 301 301 301 301 301 300 301 301 302 305 310 314 315 314 313 313 313 313 315 319 318 317 317 317 315 314 314 312 309 307 306 304 303 303 302 302 302 302 303
335 335 335 333 332 330 330 328 327 327 327 326 325 323 323 321 321 320 317 318 319 318 319 319 318 320 320 320 321 321 321 320 319 319 320 320 319 318 316 313 309 307 304 300 300 301 301 300 301 301 301 301 301 301 303 305 310 314 315 314 313 314 313 311 316 320 317 317 319 318 317 316 317 315 311 309 307 304 303 303 302 302 301 301 302
335 335 334 333 332 330 329 328 327 327 326 326 325 323 322 321 321 320 317 318 319 318 319 318 318 320 320 321 322 321 320 319 319 319 320 321 320 319 318 314 308 303 301 301 300 301 301 301 300 301 301 302 302 302 305 306 308 310 312 314 316 316 312 307 311 315 314 316 319 318 318 316 314 313 312 311 309 305 304 305 304 302 301 301 301
336 336 335 333 332 330 329 328 327 327 326 325 325 323 322 321 321 320 318 318 319 318 319 319 319 320 320 321 321 321 320 320 320 320 321 321 319 318 318 314 307 301 301 300 300 301 301 301 300 300 300 301 301 302 304 306 306 305 307 312 314 311 308 305 304 305 306 310 313 313 314 312 308 307 310 312 310 309 307 305 303 303 302 301 301
336 335 334 333 332 331 330 329 328 327 326 326 325 323 322 322 321 320 319 318 318 319 319 319 320 321 320 321 321 321 321 321 321 320 321 320 319 318 317 315 309 303 301 301 301 301 301 301 301 300 300 300 301 301 303 304 304 302 302 306 307 306 308 309 307 303 302 304 306 306 307 307 305 304 306 307 308 310 309 306 304 303 303 303 302
334 334 334 333 332 331 330 329 328 327 326 326 325 324 323 322 321 320 319 318 317 319 319 318 320 321 321 321 321 321 322 321 321 320 320 320 320 320 319 317 313 306 303 301 301 301 301 300 301 301 301 300 300 301 302 302 301 301 301 302 302 302 305 307 306 304 304 303 302 304 305 305 304 304 305 305 305 308 309 308 305 304 304 304 304
333 334 334 333 332 331 330 329 329 328 327 326 325 324 323 322 321 319 320 319 318 319 319 318 319 320 321 321 321 321 322 321 321 320 320 320 321 321 321 320 317 312 307 304 301 301 302 301 301 302 303 302 300 300 301 301 301 301 301 301 301 301 302 302 302 303 303 302 301 303 306 307 306 305 305 305 305 306 307 308 305 304 304 304 304
333 334 333 333 333 332 331 330 329 328 327 326 325 324 323 322 321 320 320 320 318 318 319 318 319 320 321 321 321 321 322 321 320 320 320 320 321 321 321 321 320 317 313 308 304 302 303 303 301 301 302 301 300 300 300 300 300 300 301 301 301 301 301 301 301 301 301 301 300 301 305 306 307 305 303 304 305 305 306 307 306 304 304 304 304
332 332 333 333 333 332 332 331 330 329 328 327 326 325 323 322 321 321 320 320 319 319 318 319 319 319 321 321 320 321 321 320 320 321 320 321 321 321 321 321 321 320 318 313 308 304 301 302 301 301 301 301 300 300 300 300 300 300 300 300 301 301 301 301 301 301 301 300 300 300 301 302 303 303 301 300 301 301 303 305 305 304 303 304 304
331 331 333 334 333 332 332 331 330 329 329 328 326 325 324 323 322 321 321 320 320 319 318 319 319 319 320 321 321 321 321 320 320 320 320 321 322 322 321 321 321 321 320 318 315 309 304 301 301 301 301 302 301 300 300 300 300 300 300 300 300 300 301 301 301 301 300 300 300 299 300 300 299 300 300 299 299 299 300 301 303 303 303 303 304
331 330 331 333 333 332 332 332 331 330 329 328 327 326 324 323 323 322 321 320 320 319 318 319 319 318 319 321 321 321 320 321 320 320 320 321 322 322 321 322 321 321 320 320 319 316 311 305 301 301 301 302 302 301 301 301 300 300 300 300 301 301 301 301 301 301 300 300 300 300 300 300 299 299 299 299 299 299 299 300 300 300 301 302 304
330 329 330 332 333 332 332 332 332 331 330 329 328 326 325 324 323 322 321 320 320 320 319 319 319 318 319 320 321 321 320 320 320 320 320 322 322 321 322 322 322 321 321 321 321 320 317 312 305 302 302 302 303 302 302 301 301 301 300 300 301 300 301 301 301 301 301 301 301 300 300 300 300 300 299 299 300 299 299 299 299 299 300 303 305
330 330 330 331 332 332 332 332 332 332 330 329 328 327 325 324 323 323 322 321 321 320 319 319 319 318 319 319 320 321 320 320 320 320 320 321 322 322 322 323 322 322 322 322 321 320 320 317 312 307 303 302 302 303 302 302 302 301 301 300 301 301 301 301 301 301 301 301 301 301 301 301 300 300 300 301 300 300 299 298 298 299 299 303 305
330 330 329 330 332 332 332 332 332 332 331 330 329 327 326 325 324 323 322 321 321 321 320 320 319 318 318 319 320 321 320 320 320 320 320 321 322 322 322 323 322 323 323 322 321 321 321 320 317 313 308 304 302 302 303 302 302 302 301 300 301 301 301 301 301 301 302 302 302 302 303 303 302 302 302 301 300 300 300 299 298 298 297 300 301
330 329 329 330 331 332 332 332 333 333 332 331 329 328 326 325 324 323 322 322 321 321 321 320 320 319 319 319 319 320 320 320 319 320 321 321 322 322 323 323 322 323 323 322 321 321 321 321 320 318 315 310 305 303 302 302 301 301 301 301 300 300 301 301 301 301 302 302 302 303 303 303 303 303 302 301 301 300 300 299 298 298 297 297 298
330 329 329 330 331 332 332 333 333 333 333 332 329 328 327 325 325 324 323 322 321 322 322 321 320 320 319 319 319 320 320 320 319 319 321 321 322 322 322 323 323 323 324 322 321 321 322 321 321 320 319 316 311 307 304 302 300 301 301 301 301 301 301 301 301 301 302 302 302 303 303 303 304 303 302 301 301 300 300 300 300 299 297 297 297
330 330 329 329 330 332 332 333 334 333 333 332 330 328 327 326 325 324 323 323 322 322 322 321 320 320 320 319 319 320 320 320 319 319 320 321 322 322 322 323 323 323 324 322 320 321 322 322 322 321 320 319 317 313 309 305 302 301 301 301 301 300 300 301 301 301 301 302 302 302 303 303 303 303 302 302 301 300 300 301 301 300 299 299 298
330 330 330 329 330 332 333 333 334 334 333 332 331 329 327 326 325 325 324 323 322 322 322 321 320 320 320 320 320 320 320 320 320 320 320 321 322 322 321 322 323 323 324 322 320 321 322 322 322 322 322 321 319 317 315 311 307 303 301 300 300 300 300 301 301 301 301 301 302 302 302 302 302 302 303 302 302 302 301 300 300 301 300 300 299
330 330 330 329 330 333 334 334 333 333 333 332 331 330 328 327 326 325 324 323 323 322 322 322 321 321 321 321 320 320 320 320 320 320 321 321 322 322 322 322 323 323 324 322 320 321 323 322 323 323 323 322 321 320 318 316 313 309 305 302 300 299 300 301 301 300 300 301 301 301 302 302 301 301 301 302 303 303 302 300 300 302 302 301 300
330 330 331 330 331 333 334 334 332 332 333 333 331 330 329 328 327 325 325 324 323 323 322 322 321 321 321 321 321 321 320 321 321 320 321 321 321 322 322 323 323 323 323 322 321 321 322 323 323 323 323 323 322 321 320 318 316 314 311 308 304 301 300 300 301 301 300 300 300 300 300 302 302 300 299 300 303 304 303 301 301 302 302 301 301
330 330 330 331 332 333 334 332 331 331 332 331 331 330 329 328 327 326 325 325 324 323 323 322 321 321 321 321 322 321 321 321 321 321 321 321 321 322 322 323 324 324 323 323 322 322 322 323 323 323 323 323 323 323 322 320 318 316 315 312 310 306 303 301 301 301 300 301 302 301 300 301 301 301 299 299 300 302 302 300 300 302 302 302 301
330 330 330 330 331 333 332 331 331 330 330 330 330 329 329 328 327 326 326 326 325 324 324 323 322 321 321 321 322 322 322 321 321 321 321 321 321 322 323 323 324 324 324 324 324 324 323 323 322 323 323 323 322 323 323 323 322 321 319 317 314 311 308 304 302 301 300 301 302 303 301 300 300 301 301 299 299 299 300 300 299 301 302 302 302
331 331 330 330 331 332 332 331 331 330 330 330 329 329 330 329 328 327 327 326 325 325 324 324 323 322 322 322 322 322 322 322 322 322 321 321 322 322 323 324 324 324 324 324 324 324 324 323 323 322 323 323 323 323 323 323 323 323 323 322 320 317 314 310 306 303 301 300 302 303 302 301 300 301 301 301 300 299 300 301 301 301 301 301 301
332 331 330 330 330 332 332 331 331 330 330 330 329 330 330 329 328 328 327 326 326 325 325 325 324 323 323 323 323 323 323 322 322 322 322 322 322 322 323 324 324 324 324 324 324 324 324 324 324 323 322 322 322 323 323 322 323 323 323 323 323 322 320 316 312 308 304 301 300 301 301 301 300 300 301 300 300 299 299 300 301 301 300 300 300
332 331 331 331 330 332 333 332 331 331 329 329 330 330 330 330 329 329 328 327 326 325 325 324 324 323 323 323 323 323 324 323 323 322 322 322 322 322 324 324 324 324 324 324 325 324 324 324 324 324 323 323 322 322 322 322 322 323 323 323 323 323 323 320 316 312 308 304 302 301 301 300 300 300 300 300 299 299 299 299 300 300 300 300 300
332 332 332 331 331 332 332 331 331 330 330 329 330 331 331 330 330 329 328 327 326 326 325 324 324 324 324 323 324 324 324 324 323 323 322 322 322 323 324 324 324 324 324 324 325 325 325 325 324 324 324 323 323 322 322 322 322 322 322 323 323 323 323 323 320 316 312 308 305 303 301 300 300 300 300 300 299 299 299 299 299 299 300 300 301
332 332 332 331 331 332 332 332 331 330 330 330 330 332 331 330 330 330 328 327 326 326 325 325 325 325 325 324 325 325 324 324 323 323 322 322 322 323 324 324 324 324 324 325 325 325 325 325 325 324 324 324 323 323 322 321 321 322 322 322 322 323 323 323 323 321 317 313 309 306 303 301 300 300 299 299 299 299 298 298 298 298 298 299 299
332 331 331 330 331 332 332 332 331 330 330 330 331 332 330 330 330 330 329 327 326 325 325 325 325 325 325 325 325 325 325 324 323 322 321 320 320 322 323 324 324 324 324 325 325 325 325 325 325 325 325 324 324 323 322 322 322 322 322 322 322 322 322 322 323 322 321 318 314 310 307 303 301 300 300 299 299 298 298 297 297 297 297 297 296
331 330 330 330 331 332 333 332 331 331 331 331 332 331 330 330 330 330 330 328 327 326 325 325 325 325 325 325 325 325 324 324 322 321 320 320 320 322 323 324 324 324 325 325 325 325 325 325 325 325 325 325 324 324 323 322 322 322 322 322 322 322 322 322 322 322 322 321 319 315 311 307 304 302 300 299 299 298 298 297 297 297 297 296 296
330 330 329 330 332 334 334 333 332 331 331 331 331 331 330 329 329 330 330 328 327 326 325 324 325 325 325 325 325 325 324 324 323 321 320 320 322 323 324 324 324 325 325 325 325 325 326 326 326 326 326 325 325 324 323 322 322 322 322 322 322 322 321 321 322 322 322 322 321 318 314 310 307 305 303 301 300 300 299 298 297 297 297 297 296
330 330 328 329 332 334 334 333 332 331 330 330 330 330 329 329 329 330 330 329 328 327 326 325 325 325 325 325 325 325 325 324 323 322 322 322 323 324 324 324 324 324 325 325 325 326 327 327 328 327 327 326 325 324 323 321 321 322 322 322 322 322 322 321 321 321 321 321 322 321 317 313 309 307 304 303 302 301 300 298 298 297 297 297 297
330 330 329 328 330 332 333 333 332 331 331 330 330 330 329 328 329 330 330 330 328 327 326 326 325 325 325 325 325 325 325 324 324 323 323 324 324 324 324 324 325 325 325 326 326 327 328 329 329 329 328 327 326 324 323 321 321 321 321 321 321 321 322 321 321 321 321 321 322 321 320 316 312 308 305 304 302 301 300 299 298 298 297 297 297
329 330 329 329 330 332 333 334 333 332 332 331 330 330 330 329 329 329 329 330 329 328 327 327 326 326 325 325 325 325 325 325 324 324 324 324 324 325 325 325 326 325 326 326 327 328 329 329 329 329 329 328 326 325 323 320 320 321 321 321 321 321 321 321 321 321 320 321 322 322 321 319 315 310 307 305 303 301 301 299 298 297 297 297 297
328 329 329 329 330 332 333 333 333 332 333 332 331 331 330 329 329 329 329 329 329 328 328 328 327 327 326 325 325 325 325 325 325 325 325 325 325 325 326 326 326 326 326 326 327 328 329 329 329 329 329 328 326 325 323 320 320 321 321 321 321 321 321 321 321 321 320 320 321 322 321 321 318 314 309 306 304 302 300 299 298 297 297 297 297
327 328 329 329 329 331 333 333 333 332 332 331 331 331 331 330 329 329 329 329 329 329 328 328 328 327 327 326 325 325 325 325 325 325 325 325 325 325 326 326 326 326 326 326 327 328 329 330 330 330 330 329 327 324 322 321 321 322 322 322 322 322 322 321 321 321 320 320 321 322 321 321 320 317 313 309 306 303 301 300 298 297 296 296 296
327 327 328 329 329 331 333 334 334 334 333 331 331 330 330 330 330 329 329 329 329 329 329 329 328 328 328 327 326 325 325 325 325 325 325 325 325 325 326 326 326 326 326 327 327 328 328 329 330 329 328 329 328 325 323 323 323 323 323 323 322 322 322 322 321 321 320 321 321 322 321 321 320 319 315 311 308 306 303 302 300 297 296 296 296
327 328 328 329 329 330 332 333 334 334 333 332 331 331 330 330 330 330 329 329 329 329 329 329 328 328 328 328 327 326 325 325 325 325 325 325 326 326 326 326 327 327 327 327 328 328 329 329 330 329 328 327 327 326 324 324 324 324 324 323 322 322 322 322 322 321 321 321 321 321 322 321 321 320 316 312 310 308 305 303 301 298 297 297 297
327 327 328 327 327 328 330 332 334 336 335 332 331 330 330 330 330 329 329 329 329 330 329 329 329 328 328 328 328 327 326 326 325 325 325 326 326 326 327 327 327 327 327 327 328 328 329 329 329 329 329 327 326 326 325 325 325 325 324 323 322 322 322 322 322 321 321 321 321 321 322 321 321 320 316 313 310 308 305 303 301 299 299 299 298
331 329 328 328 328 328 329 330 332 334 334 332 330 329 330 331 331 330 330 329 329 330 329 329 329 329 328 328 328 328 327 327 326 325 325 325 326 326 327 327 327 327 327 328 328 328 329 330 330 330 329 327 327 327 327 326 326 325 324 323 322 322 322 321 321 320 320 321 321 322 321 321 320 318 315 312 310 308 307 305 304 302 301 300 297
333 332 330 329 329 329 329 329 331 334 334 333 331 330 330 331 330 331 331 330 329 329 329 329 329 329 329 329 328 328 328 328 327 326 325 325 325 326 326 326 327 327 327 327 327 328 329 330 330 329 328 327 328 327 327 325 325 324 324 324 323 322 321 321 320 319 319 320 322 322 320 319 317 315 312 311 310 309 309 308 307 305 303 301 298
331 331 331 330 330 330 329 328 330 332 333 333 332 331 330 330 330 331 331 330 330 329 328 329 329 329 329 329 328 328 328 328 328 327 326 326 326 326 326 327 327 327 327 327 328 329 329 329 329 328 328 328 327 327 326 325 325 325 324 324 322 321 320 320 319 318 318 320 320 319 317 316 314 312 311 311 310 310 310 309 308 306 304 303 301
331 330 330 330 331 331 330 330 330 331 332 332 331 331 330 330 330 330 331 331 330 329 329 330 330 329 329 328 328 328 328 328 328 328 328 327 327 327 327 327 328 328 327 328 328 328 328 329 329 329 329 328 327 327 326 326 326 326 324 323 322 321 321 320 320 319 319 319 318 316 315 314 314 312 312 311 311 311 310 310 309 307 306 305 303
332 332 331 331 331 331 332 332 331 331 331 331 331 331 332 332 331 331 332 331 330 331 330 330 329 329 328 328 328 327 327 327 328 329 329 330 330 329 329 328 328 329 329 329 329 329 329 330 330 329 329 328 328 327 327 326 326 325 324 323 322 321 321 321 321 320 320 319 319 318 317 316 315 314 313 313 312 311 311 310 309 308 307 306 305
329 330 331 331 331 332 333 332 331 330 331 330 330 331 332 332 332 332 333 332 331 331 331 330 330 330 329 329 328 327 326 327 327 328 330 330 330 330 330 329 328 329 330 329 330 331 330 329 329 329 328 327 326 326 326 325 325 325 324 323 322 322 322 321 321 321 321 321 321 320 319 318 318 317 316 315 314 312 312 311 310 309 308 307 306
325 327 328 328 328 328 329 329 329 330 331 331 330 331 332 333 333 332 333 333 332 332 331 331 331 330 329 329 329 328 327 328 328 329 330 330 329 328 329 329 327 327 327 328 329 330 328 326 327 327 326 325 325 325 325 325 325 324 323 323 323 323 322 322 322 322 322 321 321 321 320 320 320 319 318 317 315 313 312 311 310 310 309 308 307
323 325 326 326 325 324 324 324 325 327 328 329 329 331 332 333 333 332 332 332 332 332 332 332 331 330 330 330 329 329 328 329 329 328 329 329 329 327 328 329 328 327 328 328 328 327 326 325 326 326 324 324 324 324 325 324 324 324 323 323 323 322 322 322 322 322 322 322 321 321 320 320 320 319 318 316 315 314 313 312 311 310 309 309 309
319 321 324 324 323 322 322 323 323 324 326 327 327 328 329 330 330 331 333 332 331 331 332 332 332 331 331 331 330 328 328 328 328 328 328 328 328 327 327 328 327 327 327 327 326 325 325 325 326 325 324 324 324 324 325 324 324 324 323 323 322 322 321 319 319 319 320 321 321 320 320 319 318 318 317 315 314 313 312 311 311 310 310 311 311
317 318 319 320 321 319 319 320 321 323 325 326 326 326 327 327 328 330 332 331 331 331 332 331 331 330 330 329 328 326 327 328 328 328 328 327 326 326 326 327 327 327 328 328 327 325 325 325 325 324 324 324 324 324 324 324 324 323 322 322 321 320 319 318 317 317 317 317 317 317 317 316 316 315 314 313 312 312 312 311 311 312 312 313 312
317 317 317 318 318 318 317 317 317 318 320 322 323 324 325 326 327 328 330 331 330 330 329 328 328 328 328 328 327 326 327 326 325 325 325 325 324 325 325 324 324 325 326 326 325 324 325 325 324 324 324 325 324 324 324 323 322 322 321 321 320 320 319 318 318 317 316 315 315 314 314 314 313 313 313 312 312 312 312 311 311 312 313 313 313
Wind_Speed
19 20 20 20 21 21 21 20 18 17 15 14 13 11 11 10 9 9 10 14 16 14 13 12 12 12 12 12 10 10 9 8 7 5 4 5 5 6 8 10 10 8 7 7 8 8 9 9 8 9 8 8 8 10 12 14 16 16 15 12 10 10 9 8 9 7 6 6 7 8 7 6 6 5 2 1 2 4 3 2 1 2 5 8 10
19 22 21 21 21 21 21 20 18 18 16 15 13 12 12 9 9 10 11 15 15 13 14 12 11 13 13 11 9 10 9 8 8 6 6 6 6 7 8 7 9 9 8 7 7 8 9 9 9 9 8 9 9 10 12 14 16 15 12 10 8 10 10 9 9 7 3 1 2 5 5 5 7 6 3 1 2 4 6 6 5 5 3 6 9
21 23 22 22 22 21 20 20 18 18 16 15 13 13 13 12 11 10 11 15 14 13 13 12 12 12 11 11 9 10 9 9 8 6 7 7 7 7 8 7 6 7 7 6 6 8 9 8 9 10 10 10 10 10 11 14 16 13 10 8 6 6 6 9 11 8 7 6 4 3 5 5 6 6 5 3 1 2 2 2 4 6 7 5 4
22 23 23 23 22 21 21 20 19 19 16 15 15 14 14 13 12 11 12 16 15 14 14 13 12 11 11 12 11 11 9 8 8 6 6 6 8 8 7 7 6 6 6 7 7 7 9 9 8 10 11 11 10 10 10 11 12 11 11 12 10 6 5 7 10 8 9 10 7 5 6 6 5 3 3 1 2 2 2 2 2 2 7 5 1
24 25 24 24 24 23 21 20 21 20 17 16 17 15 14 13 12 12 14 16 15 15 14 13 13 13 14 13 12 11 9 8 8 7 7 7 6 6 7 7 7 7 7 8 8 7 9 10 8 8 9 10 10 11 10 8 7 8 11 13 12 10 7 6 8 8 8 8 6 5 3 3 4 3 3 2 2 1 1 7 6 2 4 4 1
24 25 25 24 24 23 21 21 21 20 19 18 18 16 15 14 13 13 15 16 15 15 15 15 14 15 16 13 12 12 10 9 8 6 7 6 4 5 7 7 7 8 8 8 9 8 9 10 10 7 6 7 8 10 11 9 7 8 11 11 11 10 6 5 5 6 8 7 4 3 2 2 2 1 2 2 2 3 5 8 7 4 4 3 2
23 24 25 25 25 23 22 22 22 20 19 19 18 17 16 16 15 14 15 16 16 16 17 17 16 15 15 13 12 12 11 10 8 7 7 5 4 5 8 8 8 9 9 8 8 9 9 9 10 8 6 6 5 6 8 8 7 7 9 10 9 9 8 7 6 6 6 6 5 3 2 2 2 1 1 0 1 4 5 6 6 5 6 6 6
24 25 25 25 25 24 23 22 22 21 19 19 19 18 17 17 17 15 15 17 16 16 18 18 16 15 14 13 12 12 11 10 9 8 7 5 5 4 5 8 8 9 9 8 8 9 9 8 9 9 7 6 5 5 5 6 6 6 6 6 6 7 7 7 7 7 6 6 8 7 5 3 3 2 1 0 2 4 4 5 6 5 7 10 12
23 24 26 26 25 24 23 23 22 20 20 20 20 19 18 18 17 16 16 17 17 17 16 16 16 16 16 15 13 12 12 11 9 9 7 6 6 5 3 6 8 10 9 8 7 7 9 7 7 8 7 6 6 5 5 5 6 6 5 5 5 5 5 5 5 6 6 7 8 9 10 7 2 3 4 4 1 3 2 2 1 4 7 10 14
23 25 26 26 26 25 23 22 22 20 20 21 21 19 19 19 18 18 17 17 17 17 16 14 15 16 17 16 14 13 12 11 10 9 8 6 5 7 5 5 5 7 9 9 8 6 7 7 5 6 6 6 6 5 5 5 5 5 5 5 5 5 5 5 5 5 5 6 7 7 10 11 7 6 5 6 5 3 3 1 2 4 7 10 14
23 24 25 25 26 25 24 23 23 22 21 23 22 20 20 20 19 19 18 18 17 18 18 16 15 16 17 16 15 14 13 13 13 11 9 7 5 4 5 4 0 3 8 9 9 7 6 6 6 6 6 6 6 6 5 5 5 5 5 5 5 5 5 5 5 5 5 5 5 5 6 7 6 5 3 4 4 4 5 4 1 4 6 8 11
23 23 25 27 27 25 25 25 24 23 22 23 22 20 20 22 22 21 19 19 19 19 19 18 17 17 17 17 15 15 14 13 14 12 9 8 7 4 2 4 4 2 6 8 8 8 6 5 6 6 5 5 6 6 6 6 5 5 5 5 5 5 5 5 5 5 5 4 4 3 3 4 4 2 1 1 2 2 4 4 3 5 5 2 6
24 24 26 28 27 27 27 26 26 25 23 24 23 21 21 22 22 21 20 21 21 20 20 19 18 18 17 17 17 16 15 15 14 12 10 9 9 6 4 5 4 1 3 4 5 7 7 5 5 5 5 5 5 6 6 6 5 5 5 5 5 5 4 4 4 4 4 3 3 2 2 2 2 1 1 1 1 1 1 2 2 4 4 1 2
25 25 26 27 27 27 28 27 27 27 25 25 23 22 22 23 22 21 20 21 22 21 21 20 19 18 18 18 18 17 17 16 14 12 11 11 10 7 6 7 5 1 1 1 0 3 6 6 6 5 5 5 5 5 6 6 5 5 5 4 4 4 4 4 4 4 3 3 2 1 1 1 0 1 1 1 1 1 2 3 2 2 2 1 1
23 24 26 28 29 29 29 28 28 27 27 25 23 22 23 23 23 23 21 23 23 21 21 21 20 19 18 18 18 18 18 16 15 14 12 12 11 8 7 8 6 3 3 4 4 1 3 5 5 5 4 4 5 5 6 6 6 6 5 5 4 4 4 3 3 3 2 2 2 1 1 0 0 0 1 1 2 2 2 3 3 2 1 2 3
26 25 26 28 30 30 29 28 28 27 28 27 24 23 23 22 23 24 23 24 24 23 22 22 22 21 19 19 19 19 19 18 17 15 13 13 11 9 10 10 7 6 6 5 4 3 3 4 4 5 5 3 4 4 5 5 4 5 5 4 4 4 3 3 2 2 1 1 1 0 1 0 1 1 2 2 2 3 2 2 3 3 2 1 3
27 26 25 28 30 30 29 29 28 27 28 28 26 24 25 24 24 24 24 24 25 24 24 24 23 23 21 20 21 20 20 19 18 17 15 13 12 11 10 10 8 8 9 7 4 3 1 2 3 4 4 3 3 3 4 5 3 3 4 3 3 3 3 3 2 2 1 1 1 1 1 1 1 2 2 3 3 3 3 2 1 2 3 3 4
24 25 25 27 29 29 28 28 28 28 28 28 27 25 25 24 23 24 24 25 25 25 25 24 23 25 23 22 22 22 21 20 19 18 17 14 15 14 11 10 10 10 10 8 5 4 2 1 1 2 2 2 3 2 2 3 2 2 2 2 2 2 2 2 2 1 1 1 2 2 2 2 2 3 3 3 3 3 3 3 2 3 4 3 4
24 25 25 26 29 30 29 28 28 28 27 27 26 25 24 24 24 24 24 25 25 26 26 24 23 24 25 24 24 23 22 21 19 18 17 15 16 15 12 12 13 11 10 9 6 5 4 3 1 0 1 1 2 2 3 2 0 1 1 1 1 1 1 1 1 1 1 2 3 3 4 3 3 4 3 3 3 3 3 4 4 6 7 6 6
23 24 25 26 28 30 29 28 27 27 28 27 26 26 25 26 25 24 25 25 25 25 26 26 24 23 25 25 25 24 23 22 20 18 18 17 16 15 13 13 13 12 11 10 7 6 5 4 3 2 1 1 1 2 2 2 2 2 1 2 2 2 3 3 2 3 3 3 4 4 5 4 4 5 5 5 5 4 4 4 4 7 8 10 10
22 22 24 25 28 30 29 28 27 26 27 27 27 27 25 26 25 25 27 27 26 26 26 26 25 24 25 25 25 26 25 23 21 20 19 18 17 16 15 14 14 13 12 11 9 7 6 5 4 3 2 1 1 2 2 2 3 4 4 4 3 4 5 4 4 4 4 5 5 6 6 6 5 6 7 7 6 7 8 8 7 7 8 10 11
21 21 22 24 29 31 29 27 26 26 27 27 27 27 25 25 25 25 27 28 28 28 28 28 27 27 26 25 25 26 26 24 22 21 20 19 19 18 16 16 16 15 13 13 11 8 7 6 5 5 3 2 2 2 2 3 3 4 5 5 5 5 6 6 7 6 6 7 7 6 7 8 7 6 6 6 6 7 9 9 8 8 9 11 13
21 20 21 24 30 31 28 27 25 25 27 26 26 27 26 26 26 26 27 28 28 28 28 29 30 29 27 26 26 26 26 25 24 23 22 21 21 19 17 17 17 15 14 14 12 11 9 8 7 7 6 5 4 4 3 4 4 5 5 6 6 6 6 7 8 8 8 9 9 7 7 9 10 8 7 6 7 9 11 11 10 10 12 13 14
20 19 19 22 28 30 28 26 26 25 26 26 27 28 27 26 26 27 28 29 29 28 28 29 30 30 28 27 27 27 27 27 25 24 23 23 22 20 19 18 17 17 16 15 14 13 12 11 9 9 8 7 7 7 6 6 6 7 7 7 7 7 7 8 9 10 10 10 11 11 9 10 11 11 8 8 9 10 11 12 10 10 11 12 13
19 19 18 19 23 27 27 26 26 26 26 27 27 28 27 27 28 28 28 29 29 28 28 29 30 31 30 29 29 27 27 28 26 25 25 24 23 22 20 19 18 18 17 17 16 15 15 15 13 10 10 10 9 8 8 8 8 9 10 10 10 10 9 9 9 10 10 11 12 14 13 12 13 13 11 10 10 11 11 11 11 10 12 13 13
17 18 18 19 22 26 26 26 26 26 26 27 28 28 27 27 29 29 29 29 29 29 29 29 29 30 31 31 30 29 28 28 27 26 26 25 25 24 22 20 19 18 18 17 17 16 16 17 16 14 13 12 11 10 10 9 9 10 11 11 12 12 12 12 11 11 11 11 13 15 16 15 15 15 13 12 12 12 12 13 13 14 14 14 15
15 16 18 19 21 25 26 25 26 26 26 26 28 28 27 28 29 29 29 30 30 29 29 29 29 30 31 31 31 31 30 28 28 28 27 26 25 24 23 21 20 19 19 19 19 18 17 17 18 17 16 15 14 13 12 11 11 11 12 12 13 14 14 14 14 13 13 13 13 15 16 17 16 16 15 15 14 14 14 14 15 16 16 16 16
14 15 17 17 20 23 26 27 26 26 26 25 27 28 28 28 30 29 30 30 30 30 29 29 30 29 30 31 31 31 30 29 28 28 28 27 26 24 23 22 21 20 20 20 19 20 19 18 18 18 18 18 17 17 15 14 14 14 14 14 14 15 16 16 16 16 15 15 15 15 16 17 18 17 17 17 16 16 15 16 16 16 16 17 18
12 13 16 19 20 21 24 27 26 27 26 25 27 30 29 28 29 30 31 30 30 30 30 30 30 30 30 30 30 31 30 30 29 29 29 28 27 25 23 23 23 22 21 20 20 20 20 20 19 19 19 20 21 20 18 15 15 15 15 16 16 17 18 18 18 18 17 16 16 16 17 17 18 19 19 19 18 17 16 16 17 17 18 19 19
14 14 17 20 21 22 25 26 26 28 27 26 28 30 29 28 29 30 30 30 30 30 30 30 30 30 29 29 29 30 30 30 30 30 29 29 28 27 25 24 24 23 23 22 22 21 21 22 21 20 20 21 22 23 20 17 15 15 16 18 19 19 20 20 20 20 20 19 18 18 17 17 18 19 20 21 20 18 17 17 18 18 19 20 21
14 15 17 21 24 25 27 29 27 25 26 26 27 28 28 27 28 29 29 29 29 30 30 30 30 29 29 28 28 29 29 30 30 30 30 29 28 28 27 26 25 24 24 24 23 23 23 24 23 22 22 22 23 24 23 19 16 15 17 19 20 21 22 22 23 22 22 21 20 20 19 18 18 19 21 22 21 19 17 18 19 19 19 20 22
11 13 13 17 24 26 27 33 31 26 27 29 26 26 29 28 28 30 29 28 28 29 30 30 29 28 28 28 28 28 29 29 29 30 30 30 29 28 28 27 27 26 25 25 25 25 25 25 25 24 24 25 25 25 24 21 18 17 18 19 20 22 23 24 25 24 24 23 22 22 21 20 20 20 21 21 21 20 18 17 18 19 20 21 22
11 16 13 13 22 28 29 32 32 30 33 34 29 28 30 29 29 29 28 28 28 29 29 29 29 28 28 28 28 28 28 29 29 29 29 29 29 29 28 28 28 27 26 26 26 26 26 26 26 25 26 26 26 26 25 23 20 19 19 20 21 22 24 26 27 27 26 25 24 23 23 22 21 21 21 22 23 22 21 19 19 19 20 21 22
7 16 17 15 23 31 31 30 30 31 34 35 33 32 29 27 27 28 27 27 27 27 28 28 28 28 28 28 28 28 29 29 29 29 29 29 29 29 29 29 28 27 26 26 26 26 26 26 26 26 27 27 27 28 27 25 22 21 21 21 23 24 25 27 29 29 29 27 25 24 23 23 22 22 22 23 24 24 23 22 21 21 22 22 22
4 7 13 17 23 27 28 28 28 28 30 33 35 32 28 25 25 26 27 26 25 26 26 26 27 28 29 29 29 29 30 29 29 29 29 29 29 29 29 28 28 28 27 27 27 27 27 27 28 28 28 28 29 29 28 26 23 22 22 23 24 25 27 28 30 31 31 29 26 25 24 24 23 23 23 23 24 24 24 24 24 24 24 24 24
6 7 8 12 18 22 24 26 27 26 27 31 32 30 28 26 26 27 28 26 25 25 25 25 26 27 28 29 29 30 30 30 30 30 30 30 30 30 29 28 28 28 28 27 27 28 28 27 28 29 29 29 29 29 28 26 25 24 23 23 25 26 28 30 31 32 33 31 28 26 25 25 24 23 22 22 23 24 24 25 25 25 25 26 26
9 10 10 9 9 12 16 21 26 28 27 27 29 30 29 28 28 30 30 27 26 27 27 26 26 26 27 28 29 30 30 30 30 30 31 31 30 30 30 29 29 28 28 28 28 29 29 28 28 30 30 30 30 29 28 27 26 25 24 25 25 27 29 31 32 33 34 32 29 27 26 26 25 24 23 22 22 22 23 24 24 24 25 26 27
14 13 7 4 6 7 8 10 14 21 25 23 24 27 30 28 27 29 31 30 29 29 29 28 27 26 26 26 27 29 30 31 31 31 31 31 31 30 30 29 30 29 29 29 29 30 30 29 29 30 30 30 31 30 28 27 26 25 26 28 28 28 30 31 31 32 33 32 29 28 27 27 26 24 23 22 22 22 23 23 23 24 25 26 27
13 11 7 6 8 9 8 7 9 13 19 20 19 21 26 28 28 28 31 32 32 30 30 29 28 27 26 26 27 29 30 31 31 31 31 31 30 30 30 30 30 30 30 29 29 29 30 31 31 31 29 29 31 29 27 28 29 28 28 29 28 29 29 30 30 31 32 31 28 27 26 26 25 24 24 24 23 23 23 22 22 24 26 26 26
12 9 9 10 10 10 7 7 10 12 14 18 20 22 25 27 29 31 33 33 31 30 29 28 26 26 26 28 29 30 30 30 31 31 31 31 31 30 30 31 30 30 29 29 29 30 31 31 32 31 29 29 30 30 30 31 31 31 29 27 26 27 28 29 29 30 31 29 26 25 25 25 24 23 23 23 22 21 21 20 21 23 25 25 25
14 12 11 9 6 7 8 6 7 9 11 13 18 24 27 27 26 28 31 30 28 28 28 27 27 27 28 29 30 31 30 29 30 31 30 31 31 31 30 30 29 29 28 28 29 29 30 30 30 29 28 29 30 31 32 33 32 31 29 26 25 26 27 28 28 29 30 27 24 24 24 25 24 22 20 21 21 20 19 20 20 22 23 24 25
15 13 12 10 6 6 8 8 5 5 8 10 14 20 23 24 25 26 27 27 27 29 29 28 29 29 30 30 30 30 30 30 30 31 30 30 30 30 30 30 29 29 29 29 30 30 30 30 29 27 27 30 31 32 32 32 31 29 27 25 25 25 25 25 26 27 28 26 22 22 23 25 24 22 20 21 22 22 22 22 22 22 22 23 24
18 13 11 11 10 10 10 10 7 5 8 10 13 16 18 20 24 25 25 25 27 28 28 27 27 28 30 31 29 27 28 29 30 30 30 30 28 27 27 28 29 29 30 30 31 31 31 31 29 27 28 30 31 31 29 28 27 24 23 24 23 21 21 22 24 26 26 24 20 19 20 22 22 22 22 23 25 25 24 24 23 23 23 23 24
23 13 8 8 10 10 11 11 8 6 7 8 9 12 14 17 20 21 22 24 26 25 24 26 28 28 29 29 26 25 26 27 27 28 29 29 29 28 26 26 28 30 31 31 31 31 30 29 28 27 27 25 24 23 22 22 22 21 22 24 22 19 19 20 23 25 25 23 20 19 21 22 23 24 25 25 27 27 27 26 26 25 25 25 26
26 18 11 11 10 9 9 9 9 5 4 6 7 10 13 15 16 16 15 17 19 19 20 23 25 25 25 25 23 22 25 27 27 27 25 24 26 28 28 27 26 27 29 30 30 29 25 23 23 23 22 18 17 18 19 20 21 20 22 23 20 18 17 19 22 23 24 24 23 24 25 26 26 27 27 28 29 29 29 29 29 28 28 28 29
26 24 20 20 18 12 8 8 7 5 5 6 6 7 9 11 14 14 12 11 14 17 20 22 21 20 20 22 22 22 23 24 26 27 26 23 22 23 24 26 27 26 25 26 26 23 19 17 19 21 20 16 15 17 19 20 20 19 19 19 17 15 16 18 21 22 23 24 25 26 27 29 29 29 30 30 31 32 32 32 32 32 32 31 30
21 22 23 25 26 21 16 15 14 9 5 7 7 7 7 7 9 12 12 12 14 15 17 18 17 15 15 18 20 21 22 22 23 24 24 23 23 22 21 22 25 26 25 25 24 19 15 15 17 18 18 15 13 14 17 19 19 18 15 15 14 13 14 16 19 20 21 22 23 25 26 28 29 30 31 32 33 34 34 34 34 34 33 31 31
18 16 16 20 25 25 23 23 22 20 16 13 11 10 9 8 7 7 9 12 14 14 16 17 17 16 16 16 15 17 19 20 20 20 19 19 20 20 19 19 20 21 22 22 20 15 12 13 14 14 12 10 10 12 15 17 17 16 15 14 14 14 14 15 17 18 19 20 21 23 25 26 28 29 31 32 33 34 34 34 34 33 33 32 31
21 18 16 16 19 23 23 21 19 18 17 17 17 16 13 10 7 6 7 9 11 12 14 16 15 13 11 10 8 9 13 15 16 16 15 14 13 13 13 15 16 14 12 12 12 10 9 10 12 13 11 11 12 13 15 15 16 17 18 18 19 18 18 17 16 17 18 19 21 22 24 25 26 28 30 32 33 34 34 33 32 31 31 31 31
19 20 19 18 18 20 22 22 20 16 13 12 12 12 13 12 10 6 4 4 5 7 7 7 7 6 5 4 4 6 8 7 7 7 6 5 5 4 5 8 10 9 8 8 9 9 9 10 11 11 11 11 12 12 13 13 14 15 18 20 22 22 22 21 19 18 19 20 22 23 24 25 26 27 28 30 31 31 31 31 30 29 28 29 29
16 16 16 17 17 18 21 23 21 18 16 15 13 11 10 11 10 8 5 3 1 3 7 9 7 6 6 8 9 8 8 8 7 6 6 5 3 2 1 3 6 8 9 9 10 10 12 14 13 12 10 11 12 12 13 14 15 16 18 21 22 23 23 23 22 22 22 22 22 22 23 24 25 26 27 28 29 30 30 30 29 29 29 29 28
Wind_Direction
168 169 167 163 160 162 162 159 161 162 162 164 164 164 163 162 156 160 163 151 151 152 150 150 141 146 149 137 136 135 126 117 103 91 91 81 68 67 51 26 27 59 82 100 113 120 124 123 121 121 125 132 135 137 139 139 135 129 119 111 115 119 117 128 136 139 135 117 123 134 132 132 127 123 142 196 282 310 359 62 185 322 327 323 332
169 167 167 163 161 165 163 161 166 165 165 168 169 171 166 160 158 165 163 155 158 157 153 155 144 142 149 146 144 139 127 117 110 99 81 58 42 72 88 60 29 41 60 86 108 116 120 124 124 122 124 129 130 137 142 138 131 122 111 109 127 140 140 152 158 153 150 147 131 142 144 146 137 130 143 172 295 327 24 22 345 349 333 313 332
172 169 169 166 165 168 165 166 170 168 170 169 169 173 171 166 163 172 171 158 162 163 160 164 156 149 151 150 147 139 137 137 128 106 90 73 46 56 86 95 74 52 54 78 104 115 116 119 128 128 124 124 127 135 143 141 133 119 116 125 128 139 152 170 176 165 161 184 202 191 190 183 157 149 160 157 342 343 62 15 334 334 322 331 358
174 172 171 168 169 170 167 170 172 171 172 170 171 172 175 178 172 179 173 159 161 160 162 172 167 161 158 154 151 148 152 150 127 100 96 77 50 49 59 74 82 86 87 92 103 117 118 114 121 126 121 121 123 126 132 139 137 129 141 149 136 144 183 185 181 172 160 171 184 200 212 197 160 147 179 172 3 34 115 294 306 282 309 345 39
176 175 173 171 172 173 172 173 174 176 173 173 179 174 177 181 172 177 169 163 173 164 162 176 170 165 165 160 158 155 149 138 127 114 109 92 64 60 62 63 73 90 96 102 108 112 118 115 111 114 117 121 125 123 117 117 130 140 150 150 147 164 192 187 183 186 178 187 194 185 187 163 124 117 185 208 322 56 233 291 308 296 309 354 305
177 178 176 174 175 176 176 176 175 177 175 177 180 175 181 180 169 176 171 166 179 173 167 174 169 167 171 169 162 157 150 146 149 132 115 111 97 83 80 75 76 88 92 98 107 109 115 115 106 100 106 117 129 133 127 123 128 148 152 152 161 168 153 131 151 175 180 188 193 184 166 129 91 99 173 176 223 235 262 278 294 311 317 354 350
181 182 178 176 177 178 179 179 178 178 177 178 178 174 179 179 172 179 179 173 176 177 179 180 174 170 175 176 164 160 160 158 159 142 132 130 100 72 77 81 77 89 95 95 105 108 110 114 111 106 103 113 129 137 140 140 141 156 158 155 167 164 140 128 126 135 159 161 151 150 106 71 358 356 137 24 239 237 247 244 256 291 308 318 333
184 183 180 179 180 181 182 181 181 180 178 179 179 176 178 180 179 181 183 182 178 179 187 189 185 177 177 178 168 170 171 164 158 149 153 150 117 73 63 80 81 84 88 93 105 109 105 109 118 116 108 115 131 134 135 138 135 145 153 147 155 161 155 154 151 147 153 158 155 143 112 68 338 332 154 20 337 287 241 208 233 281 306 307 319
186 182 180 182 182 183 184 182 184 182 179 181 181 178 180 181 181 182 183 184 181 182 189 192 187 177 175 177 175 180 177 166 163 160 173 172 150 162 127 76 79 85 85 87 97 107 107 107 122 125 121 122 128 128 127 129 131 136 140 142 146 155 160 162 169 166 159 169 173 161 149 144 186 233 194 170 142 310 271 160 250 307 311 306 313
185 183 182 185 184 185 186 183 184 185 182 184 182 178 181 182 182 183 183 184 185 185 187 187 180 173 176 180 182 188 181 168 169 177 186 177 160 171 144 67 49 77 85 84 83 93 108 111 119 124 123 124 123 123 124 124 129 133 135 143 148 154 161 161 169 175 168 173 178 178 170 166 183 213 203 185 185 207 218 164 30 337 316 310 310
187 185 184 186 186 186 186 184 185 186 185 185 185 181 182 185 184 182 183 186 188 186 187 187 182 181 183 184 186 191 185 175 177 188 193 176 172 184 132 117 258 81 88 87 81 79 94 115 121 119 121 124 123 124 125 123 126 131 135 143 148 153 159 160 162 165 166 170 171 177 180 182 201 220 210 203 208 214 214 206 253 309 304 315 313
189 186 184 184 186 188 188 187 186 185 186 186 185 184 184 187 186 184 188 191 190 188 188 191 190 189 190 189 191 192 187 186 186 189 196 183 185 210 153 158 200 151 98 90 87 85 84 102 117 119 124 129 129 129 126 125 127 133 140 145 150 156 156 156 158 156 155 155 158 169 175 187 211 238 238 226 231 226 218 208 239 290 285 304 321
190 191 187 183 184 189 190 189 187 186 188 188 186 185 186 188 188 189 191 191 193 191 189 194 195 194 195 194 195 195 190 192 191 189 196 192 188 197 190 186 208 189 98 83 82 84 82 86 102 114 126 131 134 135 130 129 131 134 143 148 151 153 151 150 150 144 143 142 144 166 174 185 211 249 273 255 250 233 262 243 247 293 283 140 17
192 192 186 184 185 189 190 190 189 188 188 189 187 187 189 190 192 195 193 191 195 194 190 195 198 197 200 199 196 196 195 197 196 193 198 197 198 203 195 203 223 229 151 183 139 73 79 80 85 102 124 132 137 139 135 139 144 141 144 147 147 148 148 149 148 141 135 131 128 144 145 133 105 359 319 291 303 325 335 327 335 305 274 126 78
193 192 187 188 189 189 190 187 188 189 188 188 187 187 191 194 195 196 195 194 196 197 193 195 200 201 200 198 198 198 199 201 199 198 203 202 206 211 199 206 219 205 198 207 213 188 95 85 81 90 104 126 142 146 142 144 149 147 142 146 146 144 146 147 145 140 132 124 118 134 160 100 31 344 300 319 344 341 335 338 342 355 61 145 237
194 197 191 189 189 188 189 186 187 190 188 188 189 189 192 194 195 194 195 197 199 200 198 196 200 203 200 196 199 201 201 203 202 201 206 207 210 215 208 210 208 193 209 223 210 188 119 98 91 86 83 103 132 148 150 142 140 143 139 143 145 141 147 148 142 142 136 130 131 229 219 305 329 309 329 353 349 334 336 340 339 356 17 311 280
192 196 191 186 185 186 187 186 187 190 189 188 189 192 193 192 195 196 197 201 202 202 202 199 199 202 202 200 201 204 204 206 209 205 204 207 208 214 218 216 207 196 210 226 217 201 154 105 84 76 73 79 99 137 152 134 131 149 145 147 151 150 156 151 148 158 164 181 227 262 266 286 303 322 348 348 340 341 332 310 325 360 350 327 316
189 192 190 185 183 184 186 186 188 191 192 191 190 194 196 194 196 197 196 199 202 204 204 203 202 201 202 202 202 206 207 208 215 212 206 210 211 214 218 219 223 215 212 221 217 210 208 156 75 68 69 50 65 79 101 111 140 178 153 159 162 157 168 161 169 185 177 259 275 285 300 315 330 340 343 332 330 326 308 307 329 335 326 317 305
189 190 191 188 183 184 186 187 189 191 192 194 193 194 196 194 195 198 198 200 202 205 206 206 205 202 202 204 203 205 206 207 215 214 207 213 218 217 216 219 232 229 214 217 218 211 213 199 203 359 37 3 28 44 52 71 131 223 176 206 190 208 257 235 232 268 298 294 296 306 310 316 324 325 318 315 315 298 305 336 319 301 309 316 316
191 190 190 189 185 183 186 188 188 190 190 194 195 193 196 196 196 201 202 201 201 203 205 206 206 202 201 205 205 204 206 207 210 213 212 216 217 217 219 222 233 233 220 220 219 212 217 209 214 255 284 316 350 8 19 22 357 344 312 277 265 261 271 273 281 293 299 299 302 304 301 304 315 319 317 320 325 316 323 342 306 288 306 319 321
194 195 190 188 185 181 185 188 189 190 190 192 195 193 196 197 195 201 203 200 201 202 204 206 205 203 202 205 205 204 205 205 207 212 214 216 215 216 223 228 235 236 225 221 217 212 220 226 234 250 269 308 344 343 338 351 353 348 338 314 296 286 282 281 284 289 294 296 296 299 301 305 310 317 318 320 327 324 317 323 321 314 315 311 307
191 197 191 183 182 179 183 187 188 192 190 190 194 193 196 198 196 201 205 204 203 201 202 204 202 204 205 206 207 206 205 204 208 212 213 214 216 217 219 225 235 238 229 224 222 218 221 230 248 259 258 276 311 338 330 330 335 337 338 332 320 307 293 283 283 288 292 286 281 284 289 293 297 302 303 302 301 295 289 292 300 297 287 280 280
187 198 195 182 179 180 182 186 189 194 194 192 196 196 196 200 200 201 204 206 204 201 202 204 201 203 207 207 207 207 206 206 208 211 213 215 217 219 218 222 233 236 232 230 227 227 231 233 244 258 261 270 289 306 315 322 327 327 329 327 323 316 303 289 284 285 286 281 278 276 269 273 286 292 289 281 266 257 257 258 254 252 259 265 274
183 195 199 185 181 182 183 189 192 197 198 196 199 200 198 202 204 203 204 206 204 200 201 204 203 202 205 206 207 208 208 208 208 210 213 216 217 219 220 224 232 233 232 232 228 228 237 241 240 248 261 270 277 289 301 307 309 312 316 315 311 309 304 293 285 282 281 277 279 283 278 272 278 286 285 279 270 262 261 263 259 248 255 266 275
184 189 198 190 185 185 187 193 196 197 200 198 201 202 200 203 205 203 204 205 204 201 200 203 204 203 203 205 205 207 209 209 210 210 212 215 216 219 220 224 231 233 230 232 232 226 230 240 245 245 251 264 272 279 291 298 296 296 300 303 304 306 303 297 291 283 277 270 268 275 283 282 281 284 288 286 284 282 279 279 279 272 269 271 274
185 183 196 198 193 192 191 196 198 198 201 200 201 201 199 203 205 204 205 205 204 202 201 202 204 204 204 204 204 206 208 209 210 211 212 215 217 219 220 223 227 230 230 232 237 233 227 233 244 248 248 254 265 274 283 294 297 293 291 292 294 298 299 296 294 290 281 270 261 263 272 278 279 282 286 287 287 286 281 277 275 276 276 275 276
188 188 202 204 201 197 193 198 201 201 203 202 200 200 199 201 203 204 206 205 203 202 201 201 203 204 205 205 205 206 207 209 210 211 212 216 219 220 221 222 225 229 229 229 234 238 234 230 235 246 252 249 253 265 277 286 291 292 290 289 288 290 291 290 290 290 287 281 272 267 268 272 276 279 281 283 284 283 279 275 274 278 281 282 284
190 196 206 212 211 202 197 202 204 202 205 204 198 197 199 202 204 205 205 204 204 202 201 201 203 205 206 206 207 208 208 209 210 211 213 216 219 221 222 223 224 228 231 230 232 237 238 235 231 236 246 247 246 254 269 280 283 284 286 288 288 287 285 284 283 282 281 281 280 277 275 275 277 279 281 280 279 281 283 282 283 284 286 287 290
195 201 205 213 221 216 206 205 205 205 207 205 199 197 200 204 204 204 204 205 205 202 200 201 203 206 208 208 209 210 210 211 211 212 215 217 218 220 223 225 226 228 231 232 233 236 239 241 237 233 236 241 244 250 262 275 280 282 283 285 287 286 283 282 279 278 278 277 277 278 279 279 279 279 279 279 280 281 282 283 284 284 284 285 286
205 214 214 217 224 225 217 207 205 209 208 206 203 198 200 206 205 203 205 205 205 204 201 201 203 206 209 210 211 212 212 213 213 213 216 219 220 221 222 225 227 230 233 232 232 234 237 240 241 239 235 235 241 250 260 271 279 283 281 281 283 284 283 281 279 278 278 277 278 279 280 280 279 278 277 278 281 283 281 280 280 281 283 282 282
209 210 215 217 220 223 220 211 209 210 202 201 205 200 201 209 208 204 203 202 203 206 204 203 205 207 209 211 212 214 214 215 216 216 217 220 222 223 224 226 227 229 233 235 235 235 236 238 239 239 239 238 241 250 260 270 279 282 279 278 280 281 280 280 278 278 278 278 278 279 280 280 279 279 279 280 282 281 278 278 279 281 282 281 280
246 234 225 219 218 219 220 216 217 218 208 204 208 207 206 209 208 205 203 201 203 206 206 205 206 207 209 211 212 215 216 217 217 219 220 221 222 225 227 228 228 229 231 235 237 239 240 240 239 238 240 243 246 252 262 272 280 282 280 277 277 278 278 277 276 276 276 276 277 278 279 281 281 282 283 284 286 285 281 279 280 281 281 281 281
239 240 238 235 226 223 225 226 225 223 216 210 209 211 212 212 209 204 202 202 205 208 208 208 207 207 210 211 213 215 217 218 219 220 222 223 223 225 228 230 231 232 233 235 239 243 243 243 242 240 240 243 248 254 264 275 282 284 282 278 275 276 275 276 276 275 272 273 275 276 276 279 281 282 284 286 289 291 290 288 284 282 282 282 283
224 222 222 231 232 228 230 232 227 222 216 211 208 209 212 214 209 203 202 203 204 207 210 210 209 209 210 212 214 215 217 220 221 221 221 223 225 227 228 231 233 234 237 238 240 243 244 243 244 244 243 245 249 254 264 276 283 284 282 279 276 275 273 273 273 272 270 271 273 274 274 277 279 278 280 283 285 289 293 294 293 290 289 289 289
287 235 217 216 220 225 229 228 222 218 213 208 206 206 206 209 208 204 204 203 203 205 209 212 213 211 211 214 215 216 218 219 221 222 222 223 225 227 228 230 233 234 236 239 241 244 245 245 247 248 248 250 253 257 264 275 283 284 283 280 276 274 273 272 270 268 267 269 272 273 272 274 275 276 279 282 283 286 290 293 295 295 294 295 295
321 314 275 237 222 220 225 224 218 215 210 206 207 207 206 206 205 204 205 204 206 208 208 213 217 216 215 215 216 218 219 220 221 222 223 224 225 226 228 230 233 236 237 238 241 244 247 249 251 252 253 256 259 261 267 276 283 284 282 278 275 274 273 272 270 267 264 266 270 271 271 273 273 274 278 280 281 282 285 288 291 292 293 294 296
308 297 289 282 259 230 224 222 216 210 207 207 209 208 208 207 206 210 213 209 207 210 211 214 218 219 219 219 219 220 221 221 222 222 223 226 226 226 228 229 232 235 238 238 239 242 246 249 252 254 257 260 262 266 271 280 285 284 280 275 272 272 273 274 272 268 264 266 268 268 269 271 273 275 279 281 280 279 280 283 285 285 284 284 287
316 306 298 304 292 256 234 233 224 209 205 211 217 212 209 208 207 212 215 212 211 217 219 218 218 219 222 222 223 224 224 224 224 223 224 226 227 228 229 230 231 233 236 238 240 243 245 247 249 254 258 261 263 268 275 283 285 282 279 277 274 272 273 274 273 268 265 264 266 268 270 271 273 277 279 280 280 279 280 282 283 282 281 281 285
324 321 330 325 293 274 256 250 256 235 215 215 221 213 209 212 211 210 214 214 213 216 219 220 220 222 225 226 226 226 227 227 227 226 226 226 227 229 230 230 232 234 237 239 241 243 246 247 249 253 257 260 263 269 277 283 283 281 280 278 274 272 272 273 272 269 266 264 265 266 269 272 274 275 276 277 278 279 281 283 282 280 280 285 290
340 341 345 337 316 304 284 235 240 253 237 221 217 212 214 219 215 210 215 217 215 217 224 226 223 222 227 231 229 228 228 229 230 229 228 228 228 229 231 232 234 236 238 239 240 243 246 248 251 253 256 260 265 271 277 280 281 282 284 281 276 274 273 273 272 268 265 265 265 265 268 273 274 271 271 274 276 278 282 284 282 281 284 291 292
359 348 339 339 337 328 316 278 251 260 252 231 219 215 218 224 223 218 217 215 214 219 224 223 221 224 228 231 231 230 231 232 233 232 232 231 230 230 231 233 235 236 236 237 240 244 246 247 251 254 256 260 266 270 274 278 281 283 285 282 278 275 273 271 268 266 265 264 264 265 270 277 277 272 270 274 278 282 285 287 287 288 290 291 288
1 350 343 341 331 319 319 317 308 278 260 244 223 216 218 224 229 228 222 215 214 216 218 220 226 229 228 228 231 233 232 234 234 233 233 234 234 234 233 234 234 234 234 236 239 242 243 245 252 258 259 261 265 268 273 278 282 284 287 285 277 270 268 266 262 261 263 264 262 262 267 275 278 276 276 278 282 286 288 291 293 293 291 288 285
0 352 355 355 334 319 316 314 309 289 272 254 229 220 221 221 223 226 226 224 223 223 223 223 223 224 224 227 233 236 234 234 235 234 233 233 233 235 236 235 234 235 235 236 238 241 245 249 255 260 259 260 264 268 273 281 285 289 296 296 282 265 258 258 255 252 256 262 263 261 262 267 269 270 272 275 279 283 288 291 293 291 289 287 287
10 355 341 342 331 326 331 328 312 277 254 251 240 233 230 226 225 226 225 224 225 228 228 221 216 218 223 226 230 235 236 237 237 237 237 235 233 234 235 236 237 237 236 236 239 244 250 255 257 259 260 263 267 269 274 282 285 287 296 299 288 265 251 249 249 248 249 251 252 249 251 257 259 261 266 270 275 280 284 287 290 289 288 289 290
22 14 357 347 336 320 318 328 333 319 270 263 261 251 244 241 241 237 229 223 223 226 228 225 222 223 225 225 227 230 231 233 233 233 234 233 232 231 230 232 238 240 238 238 241 245 250 256 258 260 262 265 268 268 272 277 277 280 292 296 286 270 257 250 249 247 245 244 245 244 246 251 255 258 263 267 272 277 281 283 286 286 287 291 294
35 35 30 26 18 357 325 326 345 338 292 279 273 262 262 263 260 259 254 237 227 229 232 231 228 225 222 221 223 226 230 231 233 237 240 242 244 244 238 237 244 250 251 249 245 243 248 257 261 263 264 262 260 262 267 271 272 277 290 295 286 275 265 256 253 253 249 248 249 249 250 253 256 261 266 269 272 275 278 280 282 285 288 293 297
47 47 46 45 43 37 30 26 23 13 333 304 297 290 294 293 280 273 264 242 231 237 241 238 235 236 237 234 230 232 239 243 244 248 250 252 257 260 254 249 252 254 253 251 248 248 258 267 266 265 263 258 255 258 263 268 270 274 285 294 293 286 278 270 267 266 264 262 259 257 257 259 261 263 267 270 272 275 277 279 282 286 291 295 297
52 53 54 53 50 47 45 43 38 36 35 26 6 342 326 315 303 295 279 257 246 248 252 250 249 252 256 254 243 235 239 247 254 260 264 266 265 263 256 254 255 250 245 246 249 249 253 258 258 257 252 241 236 245 255 264 270 273 278 284 287 287 286 285 281 277 274 272 268 264 263 263 264 266 268 270 273 275 278 281 284 289 294 296 295
49 51 55 55 48 41 38 40 41 40 46 50 47 39 28 13 352 328 303 279 262 256 256 254 253 255 260 262 254 245 247 254 262 268 272 275 276 268 252 246 248 246 243 247 248 236 226 233 238 236 231 228 232 242 251 258 266 273 278 283 287 288 289 293 292 285 276 271 268 266 265 265 266 268 270 271 274 277 280 284 290 294 296 295 294
33 38 45 51 52 44 35 32 32 30 34 42 45 44 41 34 22 5 334 295 273 275 280 269 257 266 281 275 251 246 247 250 256 255 249 260 292 294 245 233 247 259 261 262 266 266 267 267 258 244 239 244 252 259 265 269 274 280 285 289 293 295 296 298 298 292 282 274 270 268 269 270 271 272 274 276 279 284 289 294 299 302 302 300 301
11 15 20 27 35 36 33 33 33 31 32 34 33 33 34 34 33 32 29 36 86 66 49 51 65 85 94 102 115 129 128 107 94 107 125 112 61 23 203 235 270 275 267 268 281 290 290 285 281 278 276 277 277 279 283 287 289 289 289 289 288 288 290 293 295 295 290 284 279 276 278 281 283 285 289 292 293 296 300 304 307 308 307 308 310